Cloud_Cover
18 98 100 100 100 100 100 100 100 100 100 87 99 100 100 100 100 100 100 100 100 100 100 100 100 100 98 100 100 100 100 100 100 100 100 100 100 100 100 91 100 100 100 100 100 100 99 40 76 14 8 37 84 72
86 76 100 100 100 100 100 100 100 100 100 100 100 100 100 100 100 100 100 100 100 100 100 100 100 100 97 92 99 100 100 100 100 100 100 100 100 100 100 100 100 100 100 100 96 81 79 88 86 48 7 51 88 85
4 61 100 100 100 100 100 100 100 100 100 100 100 100 100 100 100 44 100 100 100 100 100 100 100 100 100 87 100 100 100 100 100 100 100 100 100 100 91 100 95 100 100 100 100 91 55 45 80 35 29 58 27 19
0 5 85 8 100 100 100 100 100 100 100 100 100 100 100 100 100 100 100 100 100 100 100 100 100 100 98 100 100 100 100 100 100 100 100 100 100 76 100 85 50 26 63 40 94 89 78 78 92 93 95 83 58 95
3 3 51 5 66 100 100 100 100 100 100 100 100 100 100 100 100 100 100 100 100 100 100 100 100 100 100 100 70 79 100 100 100 100 100 100 100 100 100 100 100 91 100 100 100 97 100 84 100 100 86 85 100 100
5 1 0 5 4 14 100 100 100 100 100 100 100 100 100 100 100 100 100 100 100 100 100 100 100 100 100 100 100 100 100 100 100 100 100 92 87 96 97 100 91 100 100 51 100 100 100 100 100 100 92 75 98 100
67 5 0 0 0 4 5 89 100 100 100 100 100 100 100 100 100 100 100 100 100 100 100 100 100 100 100 100 100 100 100 100 100 100 98 100 100 100 100 100 100 95 40 86 80 83 90 100 94 100 100 95 86 24
78 6 5 0 0 0 0 15 100 100 100 100 100 100 100 100 100 100 100 100 100 100 100 100 100 100 100 100 100 100 100 100 100 100 100 100 100 100 100 100 100 99 82 58 56 34 33 44 51 91 94 79 49 81
99 9 5 4 0 0 0 0 38 100 100 100 100 100 100 100 100 100 100 100 100 100 100 100 100 100 100 100 100 100 100 100 100 100 100 100 100 100 100 100 100 100 61 59 67 92 55 79 96 100 100 100 100 100
7 70 28 5 5 2 0 0 0 0 22 22 71 100 100 100 100 100 100 100 100 100 100 100 100 100 100 100 100 100 100 100 100 100 100 100 100 100 98 83 100 100 100 100 99 99 63 100 100 100 100 100 71 6
5 17 98 5 5 5 0 0 0 0 0 4 11 5 98 100 100 100 100 100 100 100 100 100 100 100 100 100 100 100 100 100 100 100 100 100 100 100 100 100 100 100 100 100 100 100 100 100 100 52 5 5 5 2
98 93 8 10 5 5 3 4 0 1 5 4 4 5 2 96 100 100 100 100 100 100 100 100 100 100 100 100 100 100 100 100 100 100 100 100 100 100 100 100 100 100 100 100 100 100 100 100 100 84 8 5 4 5
87 59 95 85 5 5 5 5 4 4 5 5 4 3 5 2 30 100 100 100 100 100 100 100 100 100 100 100 100 100 100 100 100 100 100 100 100 100 100 100 100 100 100 100 100 100 100 100 100 97 91 82 93 95
100 100 100 72 73 5 5 4 0 3 5 5 5 7 20 86 94 100 100 100 100 100 100 100 100 100 100 100 100 100 100 100 100 100 100 100 99 96 88 100 100 100 100 99 100 100 100 100 100 100 100 100 100 100
4 16 5 5 14 6 5 5 5 5 5 5 5 80 95 100 100 100 100 100 98 65 37 70 32 94 100 87 77 79 100 94 88 98 92 84 100 80 100 100 100 100 100 100 100 100 100 100 100 100 100 100 100 100
0 0 4 6 52 2 3 5 5 5 5 12 13 91 57 85 100 100 100 88 61 67 47 54 20 5 18 71 76 58 41 42 63 84 100 100 100 90 90 82 99 100 100 100 100 100 100 100 100 100 100 100 100 100
0 5 5 28 11 69 5 5 20 10 5 5 54 100 71 42 58 100 97 82 100 100 100 100 100 99 100 100 95 83 56 52 66 99 83 86 72 94 99 92 66 97 97 100 100 100 100 100 100 100 99 100 100 100
5 8 4 5 5 6 5 5 5 19 5 8 21 42 58 41 66 78 65 62 36 30 31 68 44 53 96 75 94 85 95 100 100 100 95 100 96 100 100 100 100 100 100 100 100 100 100 100 100 100 97 89 92 99
42 40 6 2 5 5 6 17 16 5 24 15 15 9 50 98 28 11 49 90 62 72 56 22 38 56 26 88 95 91 100 100 100 97 99 98 94 100 100 100 100 100 100 100 100 100 100 100 99 93 92 98 100 100
5 20 86 4 1 5 5 13 29 5 56 67 14 60 55 61 90 77 94 68 100 63 52 32 48 13 98 100 98 100 93 99 100 100 100 100 100 100 100 100 100 100 100 100 100 99 94 87 81 79 77 79 100 100
23 61 100 23 13 5 5 5 20 62 46 36 65 71 94 87 89 100 91 76 100 92 96 43 86 100 100 100 96 100 100 100 100 100 100 100 100 100 100 79 100 100 100 100 100 91 50 100 82 71 67 98 100 98
92 94 99 99 69 92 68 30 88 88 89 88 83 72 76 99 96 94 90 99 93 70 55 99 33 64 100 95 100 100 100 100 100 100 100 100 100 100 100 100 100 100 81 65 99 76 87 98 73 81 99 100 88 100
100 99 100 100 94 59 8 72 98 98 100 92 98 95 99 85 89 95 95 85 77 52 67 100 73 80 99 98 98 100 100 100 100 100 100 100 100 100 100 100 100 66 81 76 66 100 100 91 50 98 100 100 100 100
99 100 99 90 95 57 26 61 96 98 93 99 94 45 85 81 96 98 100 86 55 88 65 90 98 100 100 95 100 100 100 100 97 100 100 100 100 100 100 100 100 95 99 100 80 99 82 100 78 100 100 100 100 100
100 100 97 84 91 98 99 93 98 98 93 93 94 100 47 100 100 100 100 100 81 100 100 100 99 100 100 90 83 96 100 100 100 100 95 48 64 96 100 100 100 100 100 94 87 99 100 100 100 100 100 100 100 100
96 92 95 98 100 96 100 100 97 98 100 100 96 90 83 87 74 46 50 100 100 100 100 100 100 100 98 100 100 100 100 100 100 100 91 58 51 94 100 100 100 91 95 97 100 100 100 88 100 100 100 100 100 100
18 79 82 52 91 100 100 100 95 100 94 90 78 99 100 100 63 14 99 100 100 100 100 100 100 100 100 100 100 97 100 100 100 93 96 90 93 84 84 90 64 90 27 21 79 98 99 100 100 100 100 100 100 100
69 51 5 5 30 42 100 94 100 100 100 98 98 99 99 100 99 98 100 100 100 99 99 100 100 100 100 100 95 100 97 100 100 100 100 96 100 100 98 81 54 10 73 68 100 100 100 100 100 100 98 100 100 100
45 9 5 5 4 31 87 96 100 100 66 94 100 100 100 100 100 100 100 100 98 92 100 100 100 100 100 99 86 99 100 100 100 91 94 100 92 98 100 98 72 58 79 82 64 44 83 100 99 94 71 83 100 100
61 10 5 7 16 1 32 98 99 86 58 86 88 23 46 46 63 98 100 100 100 100 100 99 99 100 100 100 100 100 100 100 100 94 100 100 99 97 100 95 100 100 100 100 98 76 11 61 70 93 100 100 100 100
57 75 31 24 5 5 5 25 5 3 5 1 4 2 2 3 20 68 90 100 100 100 100 100 100 100 100 100 100 100 100 100 100 100 100 99 93 98 97 100 96 100 100 100 100 93 40 66 100 100 100 100 100 99
15 5 38 68 17 5 6 7 29 5 2 3 0 4 12 91 72 13 100 100 100 100 100 100 100 100 100 100 100 100 100 89 98 100 100 100 100 100 98 94 99 100 100 100 100 87 98 100 100 100 100 100 96 78
90 95 81 60 13 13 68 5 5 29 38 36 8 74 38 94 99 79 97 99 100 100 100 100 100 100 100 100 100 100 100 100 100 100 100 100 100 100 100 100 100 100 100 100 100 100 100 100 100 100 92 88 90 84